RYR3131 LPMA-GCXO

Flight info

Callsign RYR3131
Flight time 1h 6m
Altitude 31000
Route GOSGA DCT ORTIS
Aircraft B38M/M-SDE1FGHILORVWXY/HB1

Departure

Time 2026-04-20 16:55
Airport Cristiano Ronaldo International Airport (LPMA)

Arrival

Time 2026-04-20 18:01
Airport Tenerife Norte-Ciudad de La Laguna Airport (GCXO)
Time Latitude Longitude Altitude Speed Heading
2026-04-20 16:40 32.69363 -16.77669 179 ft 0 kts 138°
2026-04-20 16:55 32.68691 -16.77017 14796 ft 216 kts 153°
2026-04-20 16:55 32.69363 -16.77669 179 ft 0 kts 138°
2026-04-20 17:06 32.69372 -16.77679 179 ft 3 kts 138°
2026-04-20 17:06 32.69385 -16.77692 179 ft 2 kts 140°
2026-04-20 17:06 32.69400 -16.77703 179 ft 3 kts 173°
2026-04-20 17:07 32.69417 -16.77700 179 ft 3 kts 217°
2026-04-20 17:07 32.69429 -16.77686 179 ft 1 kts 226°
2026-04-20 17:07 32.69433 -16.77682 179 ft 0 kts 226°
2026-04-20 17:09 32.69429 -16.77686 179 ft 2 kts 226°
2026-04-20 17:10 32.69413 -16.77706 179 ft 6 kts 226°
2026-04-20 17:10 32.69369 -16.77760 179 ft 13 kts 226°
2026-04-20 17:10 32.69302 -16.77847 179 ft 10 kts 239°
2026-04-20 17:10 32.69293 -16.77876 179 ft 0 kts 256°
2026-04-20 17:11 32.69293 -16.77877 179 ft 0 kts 256°
2026-04-20 17:11 32.69289 -16.77895 179 ft 6 kts 261°
2026-04-20 17:12 32.69285 -16.77988 179 ft 17 kts 262°
2026-04-20 17:12 32.69203 -16.78132 179 ft 25 kts 224°
2026-04-20 17:12 32.69098 -16.78254 179 ft 21 kts 225°
2026-04-20 17:12 32.69004 -16.78363 179 ft 14 kts 221°
2026-04-20 17:13 32.68912 -16.78406 179 ft 12 kts 198°
2026-04-20 17:13 32.68911 -16.78468 179 ft 9 kts 352°
2026-04-20 17:13 32.68959 -16.78417 179 ft 10 kts 47°
2026-04-20 17:13 32.68966 -16.78410 179 ft 0 kts 43°
2026-04-20 17:14 32.68995 -16.78376 179 ft 31 kts 43°
2026-04-20 17:15 32.69346 -16.77968 179 ft 108 kts 44°
2026-04-20 17:15 32.70039 -16.77163 270 ft 159 kts 43°
2026-04-20 17:15 32.70880 -16.76134 783 ft 190 kts 44°
2026-04-20 17:15 32.71728 -16.74884 1540 ft 207 kts 58°
2026-04-20 17:16 32.72081 -16.73158 2152 ft 228 kts 93°
2026-04-20 17:16 32.71787 -16.71226 2704 ft 247 kts 100°
2026-04-20 17:16 32.71199 -16.69254 3276 ft 256 kts 131°
2026-04-20 17:16 32.69803 -16.68062 4142 ft 242 kts 172°
2026-04-20 17:17 32.68169 -16.68015 5176 ft 236 kts 189°
2026-04-20 17:17 32.66476 -16.68044 5882 ft 255 kts 182°
2026-04-20 17:17 32.64664 -16.67952 6664 ft 265 kts 181°
2026-04-20 17:17 32.62785 -16.67822 7573 ft 270 kts 180°
2026-04-20 17:18 32.60898 -16.67677 8526 ft 274 kts 180°
2026-04-20 17:18 32.58976 -16.67521 9456 ft 279 kts 179°
2026-04-20 17:18 32.57043 -16.67356 10184 ft 288 kts 179°
2026-04-20 17:18 32.54971 -16.67163 10601 ft 309 kts 179°
2026-04-20 17:19 32.52755 -16.66945 10959 ft 329 kts 179°
2026-04-20 17:19 32.50390 -16.66711 11280 ft 350 kts 178°
2026-04-20 17:19 32.47898 -16.66465 11556 ft 369 kts 178°
2026-04-20 17:19 32.45304 -16.66215 11910 ft 383 kts 178°
2026-04-20 17:20 32.42607 -16.65964 12359 ft 393 kts 178°
2026-04-20 17:20 32.39862 -16.65719 12975 ft 397 kts 179°
2026-04-20 17:20 32.37089 -16.65483 13601 ft 400 kts 179°
2026-04-20 17:20 32.34292 -16.65249 14147 ft 404 kts 179°
2026-04-20 17:21 32.31506 -16.65018 14710 ft 406 kts 179°
2026-04-20 17:21 32.28669 -16.64784 15280 ft 409 kts 179°
2026-04-20 17:21 32.25853 -16.64552 15825 ft 411 kts 179°
2026-04-20 17:21 32.22982 -16.64317 16372 ft 414 kts 179°
2026-04-20 17:22 32.20088 -16.64079 16905 ft 417 kts 179°
2026-04-20 17:22 32.17187 -16.63842 17429 ft 419 kts 179°
2026-04-20 17:22 32.14254 -16.63603 17948 ft 422 kts 179°
2026-04-20 17:22 32.11354 -16.63366 18401 ft 425 kts 179°
2026-04-20 17:23 32.08391 -16.63106 18839 ft 428 kts 178°
2026-04-20 17:23 32.05408 -16.62768 19284 ft 430 kts 178°
2026-04-20 17:23 32.02414 -16.62434 19733 ft 433 kts 178°
2026-04-20 17:23 31.99404 -16.62102 20189 ft 436 kts 178°
2026-04-20 17:24 31.96369 -16.61768 20656 ft 438 kts 178°
2026-04-20 17:24 31.93355 -16.61437 21074 ft 441 kts 178°
2026-04-20 17:24 31.90301 -16.61102 21500 ft 443 kts 178°
2026-04-20 17:24 31.87198 -16.60762 21928 ft 446 kts 178°
2026-04-20 17:25 31.84093 -16.60422 22351 ft 449 kts 178°
2026-04-20 17:25 31.80983 -16.60082 22776 ft 451 kts 178°
2026-04-20 17:25 31.77836 -16.59738 23169 ft 454 kts 178°
2026-04-20 17:25 31.74717 -16.59396 23600 ft 455 kts 178°
2026-04-20 17:26 31.71562 -16.59052 23942 ft 457 kts 178°
2026-04-20 17:26 31.68371 -16.58704 24286 ft 460 kts 179°
2026-04-20 17:26 31.65170 -16.58355 24632 ft 462 kts 179°
2026-04-20 17:26 31.61963 -16.58005 24976 ft 464 kts 179°
2026-04-20 17:27 31.58732 -16.57653 25311 ft 467 kts 179°
2026-04-20 17:27 31.55528 -16.57304 25621 ft 469 kts 179°
2026-04-20 17:27 31.52264 -16.56949 25949 ft 470 kts 179°
2026-04-20 17:27 31.49011 -16.56596 26345 ft 469 kts 179°
2026-04-20 17:28 31.45750 -16.56242 26742 ft 468 kts 179°
2026-04-20 17:28 31.42551 -16.55894 27142 ft 467 kts 179°
2026-04-20 17:28 31.39307 -16.55556 27554 ft 466 kts 179°
2026-04-20 17:28 31.36070 -16.55223 27964 ft 466 kts 179°
2026-04-20 17:29 31.32835 -16.54890 28373 ft 465 kts 179°
2026-04-20 17:29 31.29602 -16.54557 28775 ft 464 kts 179°
2026-04-20 17:29 31.26416 -16.54228 29188 ft 463 kts 179°
2026-04-20 17:29 31.23204 -16.53897 29566 ft 463 kts 180°
2026-04-20 17:30 31.19997 -16.53567 29960 ft 462 kts 180°
2026-04-20 17:30 31.16786 -16.53237 30286 ft 461 kts 180°
2026-04-20 17:30 31.13594 -16.52909 30620 ft 460 kts 180°
2026-04-20 17:30 31.10420 -16.52583 30787 ft 461 kts 180°
2026-04-20 17:31 31.07222 -16.52254 30793 ft 459 kts 180°
2026-04-20 17:31 31.00844 -16.51600 30791 ft 459 kts 180°
2026-04-20 17:32 30.94479 -16.50949 30794 ft 459 kts 180°
2026-04-20 17:32 30.88151 -16.50301 30801 ft 459 kts 180°
2026-04-20 17:33 30.81772 -16.49649 30804 ft 459 kts 180°
2026-04-20 17:33 30.75397 -16.48999 30802 ft 459 kts 180°
2026-04-20 17:34 30.69069 -16.48355 30800 ft 458 kts 180°
2026-04-20 17:34 30.62700 -16.47707 30809 ft 458 kts 180°
2026-04-20 17:35 30.56377 -16.47064 30807 ft 458 kts 180°
2026-04-20 17:35 30.50012 -16.46419 30810 ft 458 kts 180°
2026-04-20 17:36 30.43642 -16.45773 30803 ft 458 kts 180°
2026-04-20 17:36 30.37332 -16.45135 30813 ft 458 kts 180°
2026-04-20 17:37 30.30975 -16.44492 30818 ft 458 kts 180°
2026-04-20 17:37 30.25647 -16.43954 30818 ft 458 kts 180°
2026-04-20 17:38 30.19319 -16.43316 30804 ft 458 kts 181°
2026-04-20 17:38 30.12960 -16.42676 30823 ft 458 kts 181°
2026-04-20 17:39 30.06613 -16.42038 30823 ft 458 kts 181°
2026-04-20 17:39 30.00282 -16.41402 30830 ft 458 kts 181°
2026-04-20 17:40 29.93910 -16.40763 30831 ft 458 kts 181°
2026-04-20 17:40 29.87610 -16.40132 30827 ft 456 kts 181°
2026-04-20 17:41 29.81273 -16.39497 30830 ft 456 kts 181°
2026-04-20 17:41 29.74969 -16.38867 30832 ft 456 kts 181°
2026-04-20 17:42 29.68634 -16.38235 30835 ft 456 kts 181°
2026-04-20 17:42 29.62306 -16.37604 30834 ft 456 kts 181°
2026-04-20 17:42 29.59149 -16.37290 29962 ft 459 kts 181°
2026-04-20 17:43 29.55957 -16.36971 29238 ft 456 kts 181°
2026-04-20 17:43 29.52799 -16.36656 28431 ft 454 kts 181°
2026-04-20 17:43 29.49691 -16.36346 27567 ft 454 kts 180°
2026-04-20 17:43 29.46531 -16.36032 26653 ft 455 kts 180°
2026-04-20 17:44 29.43367 -16.35717 25716 ft 457 kts 180°
2026-04-20 17:44 29.40191 -16.35401 24842 ft 458 kts 180°
2026-04-20 17:44 29.37064 -16.35091 24148 ft 454 kts 179°
2026-04-20 17:44 29.33924 -16.34779 23507 ft 450 kts 179°
2026-04-20 17:45 29.30824 -16.34472 22811 ft 445 kts 179°
2026-04-20 17:45 29.27750 -16.34167 22115 ft 441 kts 179°
2026-04-20 17:45 29.24697 -16.33864 21444 ft 436 kts 179°
2026-04-20 17:45 29.21680 -16.33566 20798 ft 432 kts 179°
2026-04-20 17:46 29.18695 -16.33270 20184 ft 427 kts 179°
2026-04-20 17:46 29.15775 -16.32981 19622 ft 422 kts 179°
2026-04-20 17:46 29.12847 -16.32692 19010 ft 419 kts 179°
2026-04-20 17:46 29.09951 -16.32406 18422 ft 416 kts 179°
2026-04-20 17:47 29.07107 -16.32125 17761 ft 414 kts 179°
2026-04-20 17:47 29.04236 -16.31841 17141 ft 410 kts 179°
2026-04-20 17:47 29.01400 -16.31562 16546 ft 406 kts 179°
2026-04-20 17:47 28.98589 -16.31285 15957 ft 403 kts 179°
2026-04-20 17:48 28.95802 -16.31010 15395 ft 400 kts 179°
2026-04-20 17:48 28.93061 -16.30740 14854 ft 396 kts 179°
2026-04-20 17:48 28.90315 -16.30470 14312 ft 393 kts 179°
2026-04-20 17:48 28.87591 -16.30202 13795 ft 390 kts 179°
2026-04-20 17:49 28.84923 -16.29939 13233 ft 388 kts 179°
2026-04-20 17:49 28.82237 -16.29675 12781 ft 382 kts 178°
2026-04-20 17:49 28.79605 -16.29417 12381 ft 375 kts 178°
2026-04-20 17:49 28.77030 -16.29164 12070 ft 367 kts 178°
2026-04-20 17:50 28.74545 -16.28920 11840 ft 358 kts 178°
2026-04-20 17:50 28.72089 -16.28679 11627 ft 348 kts 178°
2026-04-20 17:50 28.69710 -16.28446 11441 ft 338 kts 178°
2026-04-20 17:50 28.67390 -16.28219 11267 ft 329 kts 179°
2026-04-20 17:51 28.65164 -16.28001 11112 ft 319 kts 179°
2026-04-20 17:51 28.62979 -16.27787 10974 ft 310 kts 179°
2026-04-20 17:51 28.60860 -16.27579 10842 ft 300 kts 179°
2026-04-20 17:51 28.58805 -16.27378 10726 ft 290 kts 179°
2026-04-20 17:52 28.56842 -16.27186 10638 ft 281 kts 179°
2026-04-20 17:52 28.54958 -16.26699 10532 ft 279 kts 158°
2026-04-20 17:52 28.53423 -16.25345 10272 ft 287 kts 132°
2026-04-20 17:52 28.52499 -16.23294 9940 ft 295 kts 113°
2026-04-20 17:53 28.51818 -16.21091 9581 ft 295 kts 114°
2026-04-20 17:53 28.51123 -16.18908 9307 ft 292 kts 114°
2026-04-20 17:53 28.50436 -16.16761 8996 ft 290 kts 114°
2026-04-20 17:53 28.49743 -16.14624 8799 ft 284 kts 114°
2026-04-20 17:54 28.49075 -16.12559 8745 ft 269 kts 114°
2026-04-20 17:54 28.48444 -16.10609 8597 ft 256 kts 114°
2026-04-20 17:54 28.47843 -16.08767 8368 ft 245 kts 117°
2026-04-20 17:54 28.46884 -16.07295 8143 ft 223 kts 150°
2026-04-20 17:55 28.45520 -16.06708 7988 ft 201 kts 178°
2026-04-20 17:55 28.44197 -16.06861 7804 ft 184 kts 202°
2026-04-20 17:55 28.43102 -16.07557 7472 ft 180 kts 219°
2026-04-20 17:55 28.42112 -16.08410 7113 ft 181 kts 218°
2026-04-20 17:56 28.41167 -16.09359 6725 ft 182 kts 237°
2026-04-20 17:56 28.40822 -16.10659 6462 ft 165 kts 269°
2026-04-20 17:56 28.41021 -16.11880 6183 ft 152 kts 282°
2026-04-20 17:56 28.41318 -16.13035 5823 ft 154 kts 285°
2026-04-20 17:57 28.41671 -16.14189 5585 ft 156 kts 287°
2026-04-20 17:57 28.42047 -16.15350 5347 ft 156 kts 288°
2026-04-20 17:57 28.42428 -16.16507 5101 ft 156 kts 288°
2026-04-20 17:57 28.42808 -16.17659 4870 ft 155 kts 288°
2026-04-20 17:58 28.43189 -16.18811 4643 ft 155 kts 288°
2026-04-20 17:58 28.43567 -16.19950 4423 ft 154 kts 288°
2026-04-20 17:58 28.43938 -16.21073 4212 ft 153 kts 289°
2026-04-20 17:58 28.44312 -16.22204 4004 ft 152 kts 289°
2026-04-20 17:59 28.44686 -16.23332 3798 ft 151 kts 289°
2026-04-20 17:59 28.45055 -16.24447 3590 ft 150 kts 290°
2026-04-20 17:59 28.45418 -16.25545 3394 ft 149 kts 290°
2026-04-20 17:59 28.45783 -16.26645 3199 ft 148 kts 291°
2026-04-20 18:00 28.46147 -16.27743 3002 ft 147 kts 291°
2026-04-20 18:00 28.46500 -16.28814 2787 ft 146 kts 291°
2026-04-20 18:00 28.46860 -16.29884 2636 ft 144 kts 291°
2026-04-20 18:00 28.47206 -16.30956 2451 ft 144 kts 289°
2026-04-20 18:01 28.47546 -16.32011 2198 ft 140 kts 292°
2026-04-20 18:01 28.47881 -16.33019 2043 ft 127 kts 291°
2026-04-20 18:01 28.48115 -16.33709 2052 ft 59 kts 291°
2026-04-20 18:01 28.48207 -16.33976 2059 ft 25 kts 291°
2026-04-20 18:02 28.48271 -16.34119 2062 ft 15 kts 315°
2026-04-20 18:02 28.48355 -16.34193 2063 ft 16 kts 322°
2026-04-20 18:02 28.48428 -16.34285 2064 ft 16 kts 297°
2026-04-20 18:02 28.48463 -16.34399 2066 ft 14 kts 288°
2026-04-20 18:03 28.48495 -16.34499 2068 ft 13 kts 291°
2026-04-20 18:03 28.48527 -16.34582 2069 ft 9 kts 310°
2026-04-20 18:03 28.48582 -16.34574 2070 ft 9 kts 23°
2026-04-20 18:03 28.48643 -16.34545 2070 ft 10 kts 20°
2026-04-20 18:04 28.48648 -16.34542 2070 ft 0 kts 32°
2026-04-20 18:04 28.48650 -16.34541 2070 ft 0 kts 33°